GW1753 Weather Reports


Display with metric or nautical units.
time (UTC)temp
F
wind
direction
speed
MPH
gust
MPH
rain 1hr
in
rain 24hr
in
rain mn
in
humidity
%
barometer
mb
20260831053649 56 290 7.0 13.0 0.00 0.14 0.14 53 1016.3
20260831053148 56 284 6.0 10.0 0.00 0.14 0.14 54 1016.3
20260831052648 57 274 6.0 11.0 0.00 0.14 0.14 53 1016.4
20260831052147 57 271 6.0 9.0 0.00 0.14 0.14 52 1016.3
20260831051645 57 268 7.0 11.0 0.00 0.14 0.14 52 1016.3
20260831051144 57 263 8.0 15.0 0.00 0.14 0.14 51 1016.2
20260831050639 57 259 8.0 10.0 0.00 0.14 0.14 51 1016.3
20260831050138 58 259 9.0 14.0 0.00 0.14 0.14 50 1016.2
20260831045638 58 293 8.0 15.0 0.00 0.14 0.14 49 1016.1
20260831045133 58 268 8.0 13.0 0.00 0.14 0.14 50 1016.3
20260831044628 59 321 11.0 15.0 0.00 0.14 0.14 48 1016.2
20260831044123 59 278 9.0 18.0 0.00 0.14 0.14 49 1016.3
20260831043619 58 306 9.0 18.0 0.00 0.14 0.14 49 1016.2
20260831043114 58 277 9.0 15.0 0.00 0.14 0.14 50 1016.2
20260831042613 58 281 8.0 13.0 0.00 0.14 0.14 51 1016.2
20260831042108 58 265 6.0 10.0 0.00 0.14 0.14 51 1016.2
20260831041604 58 294 7.0 13.0 0.00 0.14 0.14 50 1016.2
20260831041103 59 280 6.0 13.0 0.00 0.14 0.14 49 1016.1
20260831040558 59 283 8.0 13.0 0.00 0.14 0.14 49 1016.1
20260831040057 59 261 9.0 11.0 0.00 0.14 0.14 49 1015.9
20260831035555 59 290 6.0 11.0 0.00 0.14 0.14 49 1015.9
20260831035051 60 316 9.0 13.0 0.00 0.14 0.14 48 1016.1
20260831034550 60 313 9.0 15.0 0.00 0.14 0.14 48 1015.9
20260831034046 60 296 11.0 16.0 0.00 0.14 0.14 47 1015.8
20260831033541 60 275 10.0 13.0 0.00 0.14 0.14 47 1015.9
20260831033036 60 271 7.0 10.0 0.00 0.14 0.14 48 1015.9
20260831032535 59 295 6.0 13.0 0.00 0.14 0.14 48 1015.7
20260831032032 59 285 7.0 17.0 0.00 0.14 0.14 49 1015.9
20260831031531 59 268 6.0 7.0 0.00 0.14 0.14 50 1015.9
20260831031030 59 316 6.0 14.0 0.00 0.14 0.14 49 1015.6
20260831030530 60 290 7.0 11.0 0.00 0.14 0.14 48 1015.6
20260831030029 60 233 4.0 8.0 0.00 0.14 0.14 47 1015.7
20260831025527 60 255 9.0 15.0 0.00 0.14 0.14 46 1015.5
20260831025023 60 288 8.0 15.0 0.00 0.14 0.14 46 1015.4
20260831024518 60 257 9.0 13.0 0.00 0.14 0.14 46 1015.4
20260831024018 61 330 6.0 15.0 0.00 0.14 0.14 46 1015.3
20260831023515 61 261 6.0 18.0 0.00 0.14 0.14 46 1015.2
20260831023010 61 290 8.0 17.0 0.00 0.14 0.14 45 1015.2
20260831022509 61 260 9.0 17.0 0.00 0.14 0.14 45 1015.0
20260831022005 60 265 7.0 11.0 0.00 0.14 0.14 47 1015.2
20260831021503 61 334 8.0 11.0 0.00 0.14 0.14 46 1015.1
20260831021000 61 291 6.0 14.0 0.00 0.14 0.14 45 1015.0
20260831020500 61 287 7.0 14.0 0.00 0.14 0.14 45 1015.0
20260831015954 61 295 6.0 13.0 0.00 0.14 0.14 45 1015.1
20260831015451 61 265 10.0 13.0 0.00 0.14 0.14 44 1014.9
20260831014945 62 329 9.0 13.0 0.00 0.14 0.14 44 1014.9
20260831014440 62 334 11.0 17.0 0.00 0.14 0.14 44 1014.9
20260831013936 62 275 11.0 17.0 0.00 0.14 0.14 43 1014.9
20260831013432 62 299 6.0 14.0 0.00 0.14 0.14 43 1014.9
20260831012931 63 312 8.0 17.0 0.00 0.14 0.14 42 1014.6
20260831012427 62 275 6.0 13.0 0.00 0.14 0.14 43 1014.7
20260831011921 62 277 10.0 15.0 0.00 0.14 0.14 43 1014.7
20260831011416 63 277 12.0 16.0 0.00 0.14 0.14 42 1015.0
20260831010912 63 260 12.0 16.0 0.00 0.14 0.14 43 1014.7
20260831010411 64 224 10.0 17.0 0.00 0.14 0.14 42 1014.7
20260831005907 64 287 12.0 21.0 0.00 0.14 0.14 41 1014.9
20260831005403 64 272 12.0 18.0 0.00 0.14 0.14 41 1014.7
20260831004857 65 279 15.0 18.0 0.00 0.14 0.14 40 1014.7
20260831004353 64 342 14.0 21.0 0.00 0.14 0.14 41 1014.7
20260831003849 64 234 11.0 23.0 0.00 0.14 0.14 41 1014.7
20260831003345 65 276 13.0 22.0 0.00 0.14 0.14 40 1014.6
20260831002844 66 272 8.0 17.0 0.00 0.14 0.14 39 1014.7
20260831002343 65 296 14.0 25.0 0.00 0.14 0.14 39 1014.5
20260831001839 65 285 8.0 21.0 0.00 0.14 0.14 41 1014.7
20260831001339 65 313 12.0 19.0 0.00 0.14 0.14 40 1014.6
20260831000837 66 304 16.0 23.0 0.00 0.14 0.14 38 1014.7
20260831000333 67 302 12.0 22.0 0.00 0.14 0.14 38 1014.5
20260830235830 66 15 14.0 25.0 0.00 0.14 0.14 38 1014.6
20260830235325 66 251 13.0 22.0 0.00 0.14 0.14 39 1014.6
20260830234820 66 278 15.0 22.0 0.00 0.14 0.14 38 1014.6
20260830234316 67 269 11.0 26.0 0.00 0.14 0.14 38 1014.5
20260830233812 66 275 12.0 18.0 0.00 0.14 0.14 39 1014.4
20260830233307 67 285 12.0 19.0 0.00 0.14 0.14 37 1014.6
20260830232802 68 276 14.0 17.0 0.00 0.14 0.14 38 1014.4
20260830232258 66 280 10.0 18.0 0.00 0.14 0.14 39 1014.4
20260830231754 68 280 9.0 22.0 0.00 0.14 0.14 38 1014.5
20260830231254 68 286 12.0 19.0 0.00 0.14 0.14 40 1014.5
20260830230749 66 276 4.0 16.0 0.00 0.14 0.14 41 1014.5
20260830230244 67 299 10.0 19.0 0.00 0.14 0.14 39 1014.5
20260830225743 66 300 12.0 16.0 0.00 0.14 0.14 40 1014.7
20260830225239 66 271 9.0 19.0 0.00 0.14 0.14 40 1014.5
20260830224738 66 266 9.0 13.0 0.00 0.14 0.14 39 1014.7
20260830224233 66 303 13.0 17.0 0.00 0.14 0.14 40 1014.6
20260830223730 65 261 10.0 16.0 0.00 0.14 0.14 41 1014.5
20260830223225 65 259 11.0 14.0 0.00 0.14 0.14 41 1014.5
20260830222720 65 258 6.0 15.0 0.00 0.14 0.14 41 1014.6
20260830222215 65 255 13.0 17.0 0.00 0.14 0.14 40 1014.7
20260830221711 64 232 8.0 13.0 0.00 0.14 0.14 42 1015.0
20260830221208 64 241 6.0 15.0 0.00 0.14 0.14 42 1015.1
20260830220702 63 258 5.0 10.0 0.00 0.14 0.14 43 1015.1
20260830220201 63 263 7.0 10.0 0.00 0.14 0.14 43 1015.0
20260830215700 63 251 6.0 17.0 0.00 0.14 0.14 43 1015.1
20260830215155 64 250 6.0 13.0 0.00 0.14 0.14 42 1015.1
20260830214651 64 256 10.0 19.0 0.00 0.14 0.14 41 1015.2
20260830214150 65 266 7.0 16.0 0.00 0.14 0.14 41 1015.2
20260830213649 66 292 12.0 16.0 0.00 0.14 0.14 39 1015.1
20260830213145 65 240 9.0 14.0 0.00 0.14 0.14 40 1015.2
20260830212641 64 262 9.0 15.0 0.00 0.14 0.14 41 1015.1
20260830212136 64 241 9.0 14.0 0.00 0.14 0.14 43 1015.3
20260830211631 64 254 11.0 18.0 0.00 0.14 0.14 43 1015.5
20260830211130 64 232 7.0 14.0 0.00 0.14 0.14 43 1015.4
20260830210626 64 293 8.0 11.0 0.00 0.14 0.14 43 1015.3
20260830210125 65 244 10.0 11.0 0.00 0.14 0.14 41 1015.3
20260830205622 64 236 8.0 14.0 0.00 0.14 0.14 43 1015.4
20260830205118 66 265 11.0 15.0 0.00 0.14 0.14 41 1015.3
20260830204617 66 239 11.0 15.0 0.00 0.14 0.14 40 1015.4
20260830204116 65 261 7.0 14.0 0.00 0.14 0.14 42 1015.4
20260830203613 65 256 10.0 16.0 0.00 0.14 0.14 42 1015.2
20260830203108 64 242 9.0 15.0 0.00 0.14 0.14 43 1015.5
20260830202607 63 302 12.0 21.0 0.00 0.14 0.14 45 1015.4
20260830202103 63 277 9.0 17.0 0.00 0.14 0.14 46 1015.7
20260830201602 63 297 10.0 18.0 0.00 0.14 0.14 49 1015.6
20260830201057 62 310 11.0 23.0 0.00 0.14 0.14 47 1015.3
20260830200553 64 316 17.0 24.0 0.00 0.14 0.14 45 1015.2
20260830200052 65 286 13.0 18.0 0.00 0.14 0.14 41 1015.1
20260830195548 65 226 8.0 14.0 0.00 0.14 0.14 40 1014.7
20260830195045 65 293 9.0 17.0 0.00 0.14 0.14 41 1015.0
20260830194545 65 274 5.0 15.0 0.00 0.14 0.14 42 1014.9
20260830194044 65 281 12.0 16.0 0.00 0.14 0.14 41 1014.7
20260830193544 67 323 9.0 16.0 0.00 0.14 0.14 40 1014.7
20260830193039 68 303 6.0 10.0 0.00 0.14 0.14 39 1014.6
20260830192535 68 250 8.0 15.0 0.00 0.14 0.14 40 1014.7
20260830192035 67 300 13.0 17.0 0.00 0.14 0.14 38 1014.6
20260830191530 68 240 8.0 21.0 0.00 0.14 0.14 37 1014.7
20260830191025 67 249 7.0 13.0 0.00 0.14 0.14 37 1014.7
20260830190520 68 288 9.0 17.0 0.00 0.14 0.14 35 1014.6
20260830190016 68 263 13.0 21.0 0.00 0.14 0.14 35 1014.9
20260830185509 68 215 11.0 14.0 0.00 0.14 0.14 36 1014.6
20260830185005 67 241 11.0 15.0 0.00 0.14 0.14 37 1014.9
20260830184504 68 252 7.0 17.0 0.00 0.14 0.14 37 1014.9
20260830183954 67 275 5.0 11.0 0.00 0.14 0.14 40 1014.6
20260830183453 69 251 7.0 10.0 0.00 0.14 0.14 37 1014.7
20260830182949 68 250 10.0 14.0 0.00 0.14 0.14 37 1015.0
20260830182445 68 286 10.0 15.0 0.00 0.14 0.14 37 1015.0
20260830181941 68 251 5.0 9.0 0.00 0.14 0.14 39 1014.7
20260830181437 67 285 5.0 13.0 0.00 0.14 0.14 39 1015.1
20260830180936 67 252 5.0 11.0 0.00 0.14 0.14 40 1015.1
20260830180435 68 244 12.0 17.0 0.00 0.14 0.14 38 1015.1
20260830175934 67 242 14.0 17.0 0.00 0.14 0.14 37 1015.2
20260830175429 67 235 9.0 15.0 0.00 0.14 0.14 37 1015.2
20260830174924 66 250 11.0 14.0 0.00 0.14 0.14 36 1015.2
20260830174420 66 265 5.0 11.0 0.00 0.14 0.14 38 1015.3
20260830173915 65 240 8.0 15.0 0.00 0.14 0.14 40 1015.1
20260830173410 66 233 6.0 10.0 0.00 0.14 0.14 40 1015.2
20260830172906 65 244 7.0 13.0 0.00 0.14 0.14 41 1015.0
20260830172402 64 265 8.0 10.0 0.00 0.14 0.14 41 1015.3
20260830171857 64 271 7.0 14.0 0.00 0.14 0.14 44 1015.1
20260830171353 64 254 8.0 13.0 0.00 0.14 0.14 41 1015.2
20260830170848 64 244 4.0 11.0 0.00 0.14 0.14 46 1015.4
20260830170347 64 228 6.0 11.0 0.00 0.14 0.14 45 1015.3
20260830165846 64 227 9.0 11.0 0.00 0.14 0.14 44 1015.6
20260830165342 64 225 7.0 9.0 0.00 0.14 0.14 45 1015.5
20260830164838 63 242 3.0 7.0 0.00 0.14 0.14 51 1015.7
20260830164334 63 240 4.0 10.0 0.00 0.14 0.14 52 1015.4
20260830163830 62 230 8.0 11.0 0.00 0.14 0.14 51 1015.5
20260830163325 62 258 8.0 13.0 0.00 0.14 0.14 52 1015.4
20260830162820 62 251 5.0 8.0 0.00 0.14 0.14 56 1015.7
20260830162317 62 248 4.0 7.0 0.00 0.14 0.14 60 1015.7
20260830161817 62 251 5.0 7.0 0.00 0.14 0.14 60 1015.6
20260830161316 61 244 4.0 6.0 0.00 0.14 0.14 62 1015.7
20260830160812 61 244 5.0 7.0 0.00 0.14 0.14 62 1015.6
20260830160312 60 256 2.0 7.0 0.00 0.14 0.14 67 1015.6
20260830155808 59 289 4.0 4.0 0.00 0.14 0.14 69 1015.7
20260830155306 59 245 5.0 6.0 0.00 0.14 0.14 74 1016.1
20260830154805 59 252 3.0 7.0 0.00 0.14 0.14 75 1015.9
20260830154300 58 252 2.0 6.0 0.00 0.14 0.14 75 1015.8
20260830153757 57 211 3.0 4.0 0.00 0.14 0.14 79 1015.8
20260830153252 57 222 4.0 7.0 0.00 0.14 0.14 79 1016.1
20260830152750 57 226 4.0 6.0 0.00 0.14 0.14 80 1015.9
20260830152245 57 242 3.0 4.0 0.00 0.14 0.14 82 1016.1
20260830151744 57 247 5.0 7.0 0.00 0.14 0.14 82 1016.2
20260830151244 56 240 5.0 7.0 0.00 0.14 0.14 81 1016.1
20260830150740 56 225 5.0 7.0 0.00 0.14 0.14 83 1015.9
20260830150239 56 218 4.0 4.0 0.00 0.14 0.14 84 1016.3
20260830145739 55 206 4.0 4.0 0.00 0.14 0.14 86 1016.4
20260830145235 54 232 2.0 3.0 0.00 0.14 0.14 88 1016.5
20260830144729 55 232 4.0 4.0 0.00 0.14 0.14 87 1016.4
20260830144226 55 226 4.0 6.0 0.00 0.14 0.14 86 1016.4
20260830143722 55 227 2.0 3.0 0.00 0.14 0.14 89 1016.2
20260830143219 54 227 2.0 4.0 0.00 0.14 0.14 89 1016.1
20260830142715 53 209 4.0 4.0 0.00 0.14 0.14 89 1016.2
20260830142210 54 222 2.0 2.0 0.00 0.14 0.14 91 1016.1
20260830141705 53 244 1.0 1.0 0.00 0.14 0.14 91 1015.8
20260830141200 53 251 1.0 1.0 0.00 0.14 0.14 91 1015.9
20260830140655 53 243 0.0 1.0 0.00 0.14 0.14 91 1015.8
20260830140150 53 247 1.0 2.0 0.00 0.14 0.14 90 1015.7
20260830135645 53 246 1.0 2.0 0.00 0.14 0.14 89 1015.8
20260830135140 53 256 1.0 2.0 0.00 0.14 0.14 89 1015.9
20260830134636 54 263 2.0 3.0 0.00 0.14 0.14 88 1016.1
20260830134131 54 239 2.0 3.0 0.00 0.14 0.14 88 1015.8
20260830133627 54 239 2.0 3.0 0.00 0.14 0.14 88 1016.2
20260830133122 54 240 3.0 3.0 0.00 0.14 0.14 87 1016.2
20260830132618 55 251 2.0 3.0 0.00 0.14 0.14 85 1015.8
20260830132113 55 249 4.0 4.0 0.00 0.14 0.14 85 1016.1
20260830131612 55 231 4.0 4.0 0.00 0.14 0.14 84 1016.2
20260830131107 54 254 3.0 4.0 0.00 0.14 0.14 85 1015.9
20260830130601 54 254 1.0 2.0 0.00 0.14 0.14 87 1015.8
20260830130057 54 261 1.0 2.0 0.00 0.14 0.14 86 1015.7
20260830125551 55 261 2.0 3.0 0.00 0.14 0.14 85 1015.8
20260830125050 55 252 2.0 3.0 0.00 0.14 0.14 85 1015.6
20260830124549 55 245 2.0 3.0 0.00 0.14 0.14 85 1015.5
20260830124045 55 257 2.0 3.0 0.00 0.14 0.14 86 1015.6
20260830123542 55 230 3.0 4.0 0.00 0.14 0.14 87 1015.5
20260830123038 55 232 2.0 3.0 0.00 0.14 0.14 88 1015.6
20260830122533 55 249 2.0 4.0 0.00 0.14 0.14 89 1015.6
20260830122029 55 249 2.0 3.0 0.00 0.14 0.14 89 1015.4
20260830121525 55 222 3.0 4.0 0.00 0.14 0.14 89 1015.3
20260830121024 56 220 5.0 7.0 0.00 0.14 0.14 87 1015.4
20260830120520 56 231 1.0 2.0 0.00 0.14 0.14 85 1015.1
20260830120017 56 254 2.0 3.0 0.00 0.14 0.14 86 1015.3
20260830115512 56 255 2.0 3.0 0.00 0.14 0.14 86 1015.2
20260830115007 56 276 2.0 2.0 0.00 0.14 0.14 85 1015.2
20260830114504 56 258 1.0 3.0 0.00 0.14 0.14 84 1015.2
20260830114003 56 288 2.0 3.0 0.00 0.14 0.14 83 1015.2
20260830113458 56 297 2.0 2.0 0.00 0.14 0.14 81 1015.1
20260830112954 57 280 2.0 4.0 0.00 0.14 0.14 82 1015.3
20260830112450 56 281 4.0 8.0 0.00 0.14 0.14 82 1015.7
20260830111946 56 238 6.0 8.0 0.00 0.14 0.14 84 1015.7
20260830111441 56 276 4.0 8.0 0.00 0.14 0.14 85 1015.7
20260830110937 56 286 3.0 4.0 0.00 0.14 0.14 85 1015.4
20260830110432 56 259 4.0 7.0 0.00 0.14 0.14 84 1015.5
20260830105931 56 245 4.0 6.0 0.00 0.14 0.14 85 1015.4
20260830105428 56 261 2.0 6.0 0.00 0.14 0.14 86 1015.4
20260830104924 56 257 4.0 4.0 0.00 0.14 0.14 86 1015.1
20260830104420 56 247 2.0 4.0 0.00 0.14 0.14 85 1015.1
20260830103919 56 273 5.0 8.0 0.00 0.14 0.14 87 1015.1
20260830103415 55 270 5.0 8.0 0.00 0.14 0.14 89 1015.1
20260830102913 55 268 4.0 7.0 0.00 0.14 0.14 91 1014.7
20260830102409 55 270 2.0 2.0 0.00 0.14 0.14 91 1014.4
20260830101905 55 246 0.0 1.0 0.00 0.14 0.14 91 1014.3
20260830101400 55 273 0.0 0.0 0.00 0.14 0.14 92 1014.4
20260830100900 54 259 0.0 1.0 0.00 0.14 0.14 92 1014.4
20260830100358 54 260 0.0 0.0 0.00 0.14 0.14 93 1014.6
20260830095858 54 265 0.0 1.0 0.00 0.14 0.14 93 1014.5
20260830095354 54 245 2.0 3.0 0.00 0.14 0.14 94 1014.7
20260830094849 54 241 2.0 4.0 0.00 0.14 0.14 94 1015.0
20260830094346 54 225 4.0 6.0 0.00 0.14 0.14 94 1015.1
20260830093841 54 238 2.0 4.0 0.00 0.14 0.14 93 1015.1
20260830093336 54 233 4.0 6.0 0.00 0.14 0.14 92 1015.1
20260830092832 55 244 3.0 3.0 0.00 0.14 0.14 92 1015.4
20260830092328 55 253 2.0 3.0 0.00 0.14 0.14 91 1015.4
20260830091824 55 248 2.0 3.0 0.00 0.14 0.14 91 1015.4
20260830091323 55 247 2.0 3.0 0.00 0.14 0.14 91 1015.4
20260830090822 55 268 1.0 2.0 0.00 0.14 0.14 91 1015.3
20260830090318 55 251 3.0 4.0 0.00 0.14 0.14 91 1015.3
20260830085818 55 267 5.0 7.0 0.00 0.14 0.14 90 1015.3
20260830085313 55 303 5.0 7.0 0.00 0.14 0.14 91 1015.2
20260830084809 55 307 4.0 4.0 0.00 0.14 0.14 91 1015.1
20260830084304 55 317 4.0 4.0 0.00 0.14 0.14 91 1015.3
20260830083759 55 276 6.0 8.0 0.00 0.14 0.14 92 1015.6
20260830083255 55 294 6.0 8.0 0.00 0.14 0.14 92 1015.6
20260830082754 55 300 6.0 8.0 0.07 0.14 0.14 92 1015.7
20260830082250 55 303 9.0 13.0 0.07 0.14 0.14 92 1015.8
20260830081745 55 269 7.0 9.0 0.12 0.13 0.13 92 1015.6
20260830081245 55 312 10.0 16.0 0.12 0.12 0.12 91 1015.5
20260830080739 56 255 8.0 16.0 0.17 0.11 0.11 92 1016.2
20260830080236 56 286 9.0 11.0 0.12 0.10 0.10 92 1016.2
20260830075735 56 264 9.0 14.0 0.07 0.08 0.08 91 1016.4
20260830075231 57 240 6.0 11.0 0.05 0.07 0.07 90 1016.5
20260830074725 57 292 4.0 11.0 0.07 0.06 0.06 90 1016.3
20260830074221 57 248 8.0 15.0 0.07 0.06 0.06 89 1016.5
20260830073717 57 252 10.0 13.0 0.05 0.05 0.05 89 1016.5
20260830073213 57 241 6.0 8.0 0.12 0.05 0.05 89 1016.4
20260830072712 57 282 6.0 10.0 0.07 0.04 0.04 88 1016.3
20260830072208 57 270 5.0 9.0 0.00 0.03 0.03 88 1015.8
20260830071703 57 245 6.0 8.0 0.05 0.03 0.03 88 1015.9
20260830071201 57 248 5.0 10.0 0.05 0.03 0.03 88 1015.5
20260830070655 57 302 3.0 7.0 0.07 0.02 0.02 89 1015.4
20260830070151 57 243 5.0 7.0 0.07 0.02 0.02 88 1015.4
20260830065649 58 258 3.0 7.0 0.00 0.01 0.01 87 1015.1
20260830065149 58 255 4.0 6.0 0.00 0.01 0.01 86 1015.2
20260830064648 58 271 5.0 7.0 0.07 0.01 0.01 84 1014.6
20260830064144 58 254 3.0 6.0 0.07 0.01 0.01 84 1014.7
20260830063643 58 254 4.0 6.0 0.00 0.00 0.00 84 1014.7
20260830063143 59 258 1.0 2.0 0.00 0.00 0.00 84 1014.7
20260830062638 59 248 1.0 1.0 0.00 0.00 0.00 83 1014.6
20260830062138 59 201 1.0 2.0 0.00 0.00 0.00 82 1014.5
20260830061633 59 253 2.0 2.0 0.00 0.00 0.00 82 1014.9
20260830061129 58 212 1.0 3.0 0.00 0.00 0.00 83 1014.2
20260830060626 58 259 1.0 2.0 0.00 0.00 0.00 86 1015.0
20260830060122 58 301 2.0 3.0 0.00 0.00 0.00 85 1014.6
20260830055616 58 243 2.0 3.0 0.00 0.04 0.04 84 1014.5
20260830055113 58 220 2.0 3.0 0.00 0.04 0.04 84 1014.9
20260830054608 58 238 4.0 4.0 0.00 0.04 0.04 84 1014.7
20260830054103 58 237 3.0 3.0 0.00 0.04 0.04 84 1015.0